New London, CT NWLON current weather conditions

sailwx.info

Wind from 320 at 2 knots gusting 7

Air temperature -6.7° C
Water temperature 6.1° C

Last reported at 2020-Jan-21 04:30 UTC.
Time now 2020-Jan-21 06:16 UTC

Location: N 41°22' W 072°05'.
View on Google Maps.

See reports from other nearby stations

  
Tides and Currents Weather Stations Pressure Air Temp Water Temp Dewpoint Dewpoint Depression Visibility Wind Speed Wind Dir Waves Ship Positions
date/time (UTC)wind fromknots sea level pressurealtimeterstation pressurevisibilityair tempwater tempwave heightnotes
2020-Jan-21 04:30 320 2 gusting 7 -6.7 6.1
2020-Jan-21 04:24 303 3 gusting 5 -6.7 6.1
2020-Jan-21 04:18 335 3 gusting 6 -6.7 6.1
2020-Jan-21 04:12 324 3 gusting 5 -6.7 5.6
2020-Jan-21 04:06 324 2 gusting 6 -6.7 6.1
2020-Jan-21 04:00 345 2 gusting 6 -6.7 6.1
2020-Jan-21 03:54 330 4 gusting 7 -6.7 6.1
2020-Jan-21 03:48 337 3 gusting 6 -6.1 6.1
2020-Jan-21 03:42 337 3 gusting 7 -6.1 6.1
2020-Jan-21 03:36 322 4 gusting 7 -6.7 6.1
2020-Jan-21 03:30 348 3 gusting 6 -6.1 6.1
2020-Jan-21 03:24 340 2 gusting 5 -6.1 6.1
2020-Jan-21 03:18 340 3 gusting 6 -6.1 5.6
2020-Jan-21 03:12 336 2 gusting 5 -6.1 5.6
2020-Jan-21 03:06 330 3 gusting 5 -6.7 5.6
2020-Jan-21 03:00 331 2 gusting 5 -6.1 5.6
2020-Jan-21 02:54 333 1 gusting 5 -6.1 6.1
2020-Jan-21 02:48 339 2 gusting 6 -6.1 6.1
2020-Jan-21 02:42 320 2 gusting 6 -6.1 5.6
2020-Jan-21 02:36 335 3 gusting 6 -6.1 5.6
2020-Jan-21 02:30 311 2 gusting 5 -6.1 5.6
2020-Jan-21 02:24 323 0 gusting 5 -6.1 5.6
2020-Jan-21 02:18 316 3 gusting 8 -6.1 5.6
2020-Jan-21 02:12 327 3 gusting 6 -6.1 5.6
2020-Jan-21 02:06 324 3 gusting 6 -5.6 5.6
2020-Jan-21 02:00 313 3 gusting 6 -5.6 5.6
2020-Jan-21 01:54 344 3 gusting 5 -5.6 5.6
2020-Jan-21 01:48 327 2 gusting 6 -5.6 5.6
2020-Jan-21 01:42 320 4 gusting 6 -5.6 5.6
2020-Jan-21 01:36 308 4 gusting 5 -5.6 5.6
2020-Jan-21 01:30 316 3 gusting 6 -5.6 5.6
2020-Jan-21 01:24 305 3 gusting 5 -5.6 5.6
2020-Jan-21 01:18 312 3 gusting 5 -5.0 5.6
2020-Jan-21 01:12 323 2 gusting 6 -5.0 5.6
2020-Jan-21 01:06 319 3 gusting 5 -5.0 5.6
2020-Jan-21 01:00 342 1 gusting 5 -5.0 5.6
2020-Jan-21 00:54 321 4 gusting 6 -5.0 5.6
2020-Jan-21 00:48 329 3 gusting 5 -4.4 6.1
2020-Jan-21 00:42 315 3 gusting 6 -4.4 6.1
2020-Jan-21 00:36 312 3 gusting 6 -4.4 6.1
2020-Jan-21 00:30 326 3 gusting 6 -4.4 6.1
2020-Jan-21 00:24 318 4 gusting 8 -4.4 6.1
2020-Jan-21 00:18 317 3 gusting 6 -4.4 6.1
2020-Jan-21 00:12 306 2 gusting 3 -4.4 5.6
2020-Jan-21 00:06 320 3 gusting 5 -3.9 5.6
2020-Jan-21 00:00 319 3 gusting 5 -3.9 6.1
2020-Jan-20 23:54 302 3 gusting 6 -3.9 6.1
2020-Jan-20 23:42 312 2 gusting 5 -3.9 6.1
2020-Jan-20 23:36 320 2 gusting 4 -3.9 6.1
2020-Jan-20 23:30 317 3 gusting 5 -3.9 5.6
2020-Jan-20 23:24 316 3 gusting 5 -3.9 6.1
2020-Jan-20 23:18 310 2 gusting 6 -3.3 6.1
2020-Jan-20 23:12 326 2 gusting 4 -3.3 6.1
2020-Jan-20 23:06 312 3 gusting 6 -3.3 5.6
2020-Jan-20 23:00 339 2 gusting 4 -3.3 5.6
2020-Jan-20 22:48 333 1 gusting 5 -3.3 5.6
2020-Jan-20 22:42 342 3 gusting 7 -2.8 5.6
2020-Jan-20 22:36 342 4 gusting 7 -2.8 5.6
2020-Jan-20 22:30 345 5 gusting 7 -2.8 5.6
2020-Jan-20 22:24 347 4 gusting 7 -2.8 5.6
2020-Jan-20 22:18 340 3 gusting 7 -2.8 5.6
2020-Jan-20 22:12 344 5 gusting 7 -2.8 5.6
2020-Jan-20 22:06 343 5 gusting 9 -2.8 5.6
2020-Jan-20 22:00 344 7 gusting 12 -2.2 5.0
2020-Jan-20 21:54 346 6 gusting 9 -2.2 5.6
2020-Jan-20 21:48 344 7 gusting 10 -2.2 5.6
2020-Jan-20 21:42 345 2 gusting 7 -2.2 5.6
2020-Jan-20 21:36 345 2 gusting 9 -2.2 5.6
2020-Jan-20 21:30 336 4 gusting 8 -2.2 5.6
2020-Jan-20 21:24 339 5 gusting 9 -2.2 5.6
2020-Jan-20 21:18 344 5 gusting 10 -1.7 5.6
2020-Jan-20 21:12 350 9 gusting 13 -1.7 5.0
2020-Jan-20 21:06 351 8 gusting 13 -1.7 5.6
2020-Jan-20 21:00 347 8 gusting 13 -1.7 5.6
2020-Jan-20 20:54 342 7 gusting 11 -1.7 5.6
2020-Jan-20 20:48 337 5 gusting 11 -1.7 5.0
2020-Jan-20 20:42 337 6 gusting 12 -1.7 5.0
2020-Jan-20 20:36 347 5 gusting 9 -1.7 5.6
2020-Jan-20 20:30 334 4 gusting 11 -1.1 5.6
2020-Jan-20 20:24 335 5 gusting 9 -1.1 5.6
2020-Jan-20 20:18 331 6 gusting 10 -1.1 5.0
2020-Jan-20 20:12 340 4 gusting 12 -1.1 5.0
2020-Jan-20 20:06 337 6 gusting 9 -1.7 5.0
2020-Jan-20 20:00 336 4 gusting 8 -1.1 5.6
2020-Jan-20 19:54 342 7 gusting 13 -1.7 6.1
2020-Jan-20 19:48 353 6 gusting 13 -1.7 6.1
2020-Jan-20 19:42 359 9 gusting 14 -1.7 6.1
2020-Jan-20 19:36 349 7 gusting 13 -1.7 5.0
2020-Jan-20 19:30 356 8 gusting 13 -1.7 5.0
2020-Jan-20 19:24 351 9 gusting 13 -1.7 4.4
2020-Jan-20 19:18 352 7 gusting 12 -1.7 4.4
2020-Jan-20 19:12 335 6 gusting 13 -1.7 4.4
2020-Jan-20 19:00 345 8 gusting 15 -2.2 4.4
2020-Jan-20 18:54 348 8 gusting 13 -2.2 4.4
2020-Jan-20 18:48 358 8 gusting 15 -2.2 4.4
2020-Jan-20 18:42 349 10 gusting 14 -2.2 4.4
2020-Jan-20 18:36 343 6 gusting 16 -2.2 4.4
2020-Jan-20 18:30 342 11 gusting 14 -2.2 4.4
2020-Jan-20 18:24 350 9 gusting 15 -2.2 4.4
2020-Jan-20 18:18 349 10 gusting 13 -2.2 4.4
2020-Jan-20 18:12 002 7 gusting 17 -2.2 4.4
2020-Jan-20 18:06 347 11 gusting 17 -2.8 4.4
2020-Jan-20 18:00 350 11 gusting 19 -2.8 4.4
2020-Jan-20 17:54 347 10 gusting 14 -2.8 4.4
2020-Jan-20 17:48 344 11 gusting 16 -2.8 4.4
2020-Jan-20 17:42 344 10 gusting 15 -2.8 4.4
2020-Jan-20 17:36 350 11 gusting 18 -3.3 4.4
2020-Jan-20 17:30 006 6 gusting 16 -2.8 4.4
2020-Jan-20 17:24 353 12 gusting 16 -3.3 4.4
2020-Jan-20 17:18 001 8 gusting 16 -2.8 3.9
2020-Jan-20 17:12 358 9 gusting 17 -3.3 4.4
2020-Jan-20 17:06 002 9 gusting 18 -3.3 4.4
2020-Jan-20 17:00 356 10 gusting 17 -3.3 4.4
2020-Jan-20 16:54 010 8 gusting 18 -3.9 4.4
2020-Jan-20 16:48 352 10 gusting 21 -3.9 4.4
2020-Jan-20 16:42 347 13 gusting 19 -3.9 4.4
2020-Jan-20 16:36 348 10 gusting 14 -3.9 4.4
2020-Jan-20 16:30 343 8 gusting 18 -3.9 4.4
2020-Jan-20 16:24 349 11 gusting 15 -4.4 4.4
2020-Jan-20 16:18 346 12 gusting 15 -4.4 4.4
2020-Jan-20 16:12 343 9 gusting 13 -4.4 4.4
2020-Jan-20 16:06 347 12 gusting 15 -4.4 4.4
2020-Jan-20 16:00 350 10 gusting 16 -4.4 4.4
2020-Jan-20 15:54 353 12 gusting 18 -4.4 4.4
2020-Jan-20 15:48 351 12 gusting 18 -4.4 4.4
2020-Jan-20 15:42 359 8 gusting 17 -4.4 5.0
2020-Jan-20 15:36 358 9 gusting 17 -4.4 4.4
2020-Jan-20 15:30 360 8 gusting 18 -5.0 4.4
2020-Jan-20 15:24 356 12 gusting 19 -5.0 5.0
2020-Jan-20 15:18 352 6 gusting 13 -5.0 4.4
2020-Jan-20 15:12 357 8 gusting 14 -5.0 5.0
2020-Jan-20 15:06 004 7 gusting 17 -5.0 4.4
2020-Jan-20 15:00 357 8 gusting 17 -5.6 5.0
2020-Jan-20 14:48 355 11 gusting 18 -5.6 5.0
2020-Jan-20 14:42 348 12 gusting 17 -5.6 5.0
2020-Jan-20 14:36 359 9 gusting 16 -6.1 5.6
2020-Jan-20 14:30 359 10 gusting 18 -6.1 5.6
2020-Jan-20 14:24 353 9 gusting 14 -6.1 5.6
2020-Jan-20 14:18 357 9 gusting 19 -6.1 6.1
2020-Jan-20 14:12 348 12 gusting 14 -6.1 6.1
2020-Jan-20 14:06 340 11 gusting 17 -6.1 6.1
2020-Jan-20 14:00 349 12 gusting 18 -6.7 6.1
2020-Jan-20 13:54 347 13 gusting 19 -6.7 6.1
2020-Jan-20 13:48 342 9 gusting 16 -6.7 6.1
2020-Jan-20 13:42 348 7 gusting 14 -6.7 6.1
2020-Jan-20 13:18 343 7 gusting 10 -6.7 5.6
2020-Jan-20 13:12 340 5 gusting 9 -6.7 6.1
2020-Jan-20 13:06 337 5 gusting 11 -6.7 6.1
2020-Jan-20 13:00 355 6 gusting 9 -6.7 6.1
2020-Jan-20 12:54 339 3 gusting 9 -7.2 6.1
2020-Jan-20 12:42 342 6 gusting 9 -7.2 6.1
2020-Jan-20 12:36 347 6 gusting 11 -7.2 6.1
2020-Jan-20 12:24 342 4 gusting 11 -7.2 6.1
2020-Jan-20 12:18 344 7 gusting 13 -7.2 6.1
2020-Jan-20 12:12 351 6 gusting 11 -7.2 6.1
2020-Jan-20 12:06 348 6 gusting 11 -7.2 6.1
2020-Jan-20 12:00 345 5 gusting 10 -7.2 6.1
2020-Jan-20 11:54 345 9 gusting 13 -7.2 6.1
2020-Jan-20 11:48 342 5 gusting 13 -7.2 6.1
2020-Jan-20 11:42 344 5 gusting 11 -7.2 6.1
2020-Jan-20 11:36 336 6 gusting 14 -7.2 6.1
2020-Jan-20 11:30 350 8 gusting 13 -6.7 6.1
2020-Jan-20 11:24 341 6 gusting 11 -7.2 6.1
2020-Jan-20 11:18 336 5 gusting 11 -7.2 6.1
2020-Jan-20 11:12 341 5 gusting 8 -6.7 6.1
2020-Jan-20 11:06 328 4 gusting 8 -7.2 6.1
2020-Jan-20 11:00 325 4 gusting 7 -7.2 6.1
2020-Jan-20 10:54 343 5 gusting 11 -6.7 6.1
2020-Jan-20 10:48 343 6 gusting 10 -6.7 6.1
2020-Jan-20 10:42 304 5 gusting 7 -7.2 6.1
2020-Jan-20 10:36 349 4 gusting 14 -6.7 6.1
2020-Jan-20 10:30 322 6 gusting 11 -6.7 6.1
2020-Jan-20 10:24 328 5 gusting 10 -6.7 6.1
2020-Jan-20 10:18 336 3 gusting 9 -6.7 6.1
2020-Jan-20 10:12 323 3 gusting 11 -6.7 6.1
2020-Jan-20 10:06 347 7 gusting 12 -6.7 6.1
2020-Jan-20 09:54 318 5 gusting 13 -6.7 6.1
2020-Jan-20 09:48 333 7 gusting 14 -6.7 6.1
2020-Jan-20 09:42 338 5 gusting 9 -6.7 6.1
2020-Jan-20 09:36 339 5 gusting 10 -6.7 6.1
2020-Jan-20 09:30 336 5 gusting 10 -6.7 6.1
2020-Jan-20 09:24 343 6 gusting 13 -6.7 6.1
2020-Jan-20 09:18 342 10 gusting 14 -6.7 5.6
2020-Jan-20 09:12 338 6 gusting 13 -6.7 5.6
2020-Jan-20 09:06 344 8 gusting 13 -6.1 6.1
2020-Jan-20 09:00 341 10 gusting 14 -6.1 5.6
2020-Jan-20 08:54 344 9 gusting 15 -6.1 6.1
2020-Jan-20 08:48 341 9 gusting 15 -6.1 6.1
2020-Jan-20 08:42 346 7 gusting 13 -6.1 6.1
2020-Jan-20 08:36 341 6 gusting 16 -6.1 6.1
2020-Jan-20 08:30 338 6 gusting 13 -5.6 6.1
2020-Jan-20 08:24 344 12 gusting 15 -5.6 6.1
2020-Jan-20 08:18 341 6 gusting 9 -5.6 6.1
2020-Jan-20 08:12 334 4 gusting 10 -5.6 6.1
2020-Jan-20 08:06 335 9 gusting 17 -5.6 6.1
2020-Jan-20 08:00 348 8 gusting 13 -5.0 6.1
2020-Jan-20 07:54 346 10 gusting 18 -5.0 6.1
2020-Jan-20 07:48 347 7 gusting 13 -5.0 6.1
2020-Jan-20 07:42 343 4 gusting 12 -5.0 6.1
2020-Jan-20 07:36 338 4 gusting 11 -5.0 6.1
2020-Jan-20 07:30 331 6 gusting 10 -5.0 6.1
2020-Jan-20 07:24 324 4 gusting 8 -5.0 6.1
2020-Jan-20 07:18 335 3 gusting 8 -5.0 6.1
2020-Jan-20 07:12 339 3 gusting 12 -4.4 6.1
2020-Jan-20 07:06 342 7 gusting 15 -4.4 6.1
2020-Jan-20 07:00 332 6 gusting 11 -4.4 6.1
2020-Jan-20 06:54 341 7 gusting 13 -4.4 6.1
2020-Jan-20 06:48 333 3 gusting 8 -4.4 6.1
2020-Jan-20 06:42 323 7 gusting 13 -4.4 6.1
2020-Jan-20 06:36 326 5 gusting 12 -4.4 6.1
2020-Jan-20 06:30 324 5 gusting 10 -4.4 6.1
2020-Jan-20 06:24 329 6 gusting 9 -3.9 6.1
2020-Jan-20 06:18 335 3 gusting 7 -3.9 6.1
2020-Jan-20 06:12 333 4 gusting 9 -3.9 6.1
2020-Jan-20 06:06 330 3 gusting 13 -3.9 5.6
2020-Jan-20 06:00 336 7 gusting 13 -3.9 6.1
2020-Jan-20 05:54 339 6 gusting 12 -3.9 5.6
2020-Jan-20 05:48 339 5 gusting 9 -3.3 5.6
2020-Jan-20 05:42 337 3 gusting 8 -3.3 5.6
2020-Jan-20 05:36 335 3 gusting 9 -3.3 5.6
2020-Jan-20 05:30 328 5 gusting 11 -3.3 5.6
2020-Jan-20 05:24 340 6 gusting 13 -3.3 5.6
2020-Jan-20 05:18 349 10 gusting 13 -2.8 5.6
2020-Jan-20 05:12 347 10 gusting 15 -2.8 5.0
2020-Jan-20 05:06 341 6 gusting 10 -2.8 5.6
2020-Jan-20 05:00 330 3 gusting 9 -2.8 5.0
2020-Jan-20 04:54 333 6 gusting 10 -2.2 5.0
2020-Jan-20 04:48 331 6 gusting 14 -2.2 5.0
2020-Jan-20 04:42 334 5 gusting 11 -2.2 5.0
2020-Jan-20 04:36 339 4 gusting 10 -2.2 5.0
2020-Jan-20 04:30 329 5 gusting 9 -2.2 5.6
2020-Jan-20 04:24 344 6 gusting 13 -1.7 5.6
2020-Jan-20 04:18 348 11 gusting 16 -1.7 6.1
2020-Jan-20 04:12 347 11 gusting 15 -1.7 5.6
2020-Jan-20 04:06 349 11 gusting 14 -1.7 6.1
2020-Jan-20 04:00 343 5 gusting 13 -1.1 5.6
2020-Jan-20 03:54 334 5 gusting 8 -1.1 5.6
2020-Jan-20 03:48 331 6 gusting 11 -0.6 5.6
2020-Jan-20 03:42 344 6 gusting 10 -0.6 5.6
2020-Jan-20 03:36 341 6 gusting 10 -0.6 5.6
2020-Jan-20 03:30 336 7 gusting 13 -0.0 5.6
2020-Jan-20 03:24 336 3 gusting 7 -0.0 5.6
2020-Jan-20 03:18 323 6 gusting 13 -0.0 5.6
2020-Jan-20 03:12 343 6 gusting 14 0.6 5.6
2020-Jan-20 03:06 346 6 gusting 14 0.6 5.6
2020-Jan-20 03:00 343 9 gusting 13 0.6 5.6
2020-Jan-20 02:54 345 7 gusting 11 0.6 5.6
2020-Jan-20 02:48 347 6 gusting 8 0.6 5.6
2020-Jan-20 02:42 327 6 gusting 11 0.6 6.1
2020-Jan-20 02:36 332 2 gusting 9 1.1 5.6
2020-Jan-20 02:30 344 5 gusting 11 1.1 6.1
2020-Jan-20 02:24 340 7 gusting 11 1.1 6.1
2020-Jan-20 02:18 346 2 gusting 7 1.1 6.1
2020-Jan-20 02:12 338 4 gusting 7 1.1 6.1
2020-Jan-20 02:06 331 3 gusting 6 1.1 6.1
2020-Jan-20 02:00 342 4 gusting 9 1.7 6.1
2020-Jan-20 01:54 341 6 gusting 10 1.7 6.1
2020-Jan-20 01:48 344 4 gusting 9 1.7 6.1
2020-Jan-20 01:42 352 5 gusting 7 1.7 6.1
2020-Jan-20 01:36 346 2 gusting 6 1.7 6.1
2020-Jan-20 01:30 352 4 gusting 6 1.7 6.1
2020-Jan-20 01:24 347 4 gusting 6 1.7 6.1
2020-Jan-20 01:18 341 3 gusting 6 1.7 6.1
2020-Jan-20 01:12 353 5 gusting 6 1.7 6.1
2020-Jan-20 01:06 347 4 gusting 6 1.7 6.1
2020-Jan-20 01:00 347 3 gusting 6 1.7 6.1
2020-Jan-20 00:54 344 4 gusting 6 1.7 6.1
2020-Jan-20 00:48 350 4 gusting 7 1.7 6.1
2020-Jan-20 00:42 345 5 gusting 7 1.7 6.1
2020-Jan-20 00:36 347 4 gusting 6 1.7 6.1
2020-Jan-20 00:30 343 4 gusting 7 1.7 6.1
2020-Jan-20 00:24 341 4 gusting 7 1.7 6.1
2020-Jan-20 00:18 350 1 gusting 6 1.7 6.1
2020-Jan-20 00:12 336 2 gusting 7 1.7 6.1
2020-Jan-20 00:06 342 4 gusting 7 2.2 6.1
2020-Jan-20 00:00 345 6 gusting 8 2.2 6.1
2020-Jan-19 23:42 343 3 gusting 7 2.2 6.1
2020-Jan-19 23:36 347 6 gusting 8 2.8 6.1
2020-Jan-19 23:30 346 5 gusting 8 2.8 6.1
2020-Jan-19 23:24 353 2 gusting 4 2.8 6.1
2020-Jan-19 23:18 359 1 gusting 4 2.8 6.1
2020-Jan-19 23:12 336 2 gusting 6 2.8 6.1
2020-Jan-19 23:06 319 3 gusting 6 3.3 6.1
2020-Jan-19 23:00 335 3 gusting 7 3.3 6.1
2020-Jan-19 22:54 330 4 gusting 10 3.3 6.1
2020-Jan-19 22:48 339 3 gusting 5 3.3 6.1
2020-Jan-19 22:42 336 3 gusting 10 3.9 6.1
2020-Jan-19 22:36 328 6 gusting 9 3.9 6.1
2020-Jan-19 22:30 345 4 gusting 11 3.9 6.1
2020-Jan-19 22:24 327 6 gusting 9 3.9 6.1
2020-Jan-19 22:18 340 4 gusting 6 3.9 6.1
2020-Jan-19 22:12 330 5 gusting 9 3.9 6.1
2020-Jan-19 22:06 328 3 gusting 7 4.4 6.1
2020-Jan-19 22:00 330 5 gusting 8 4.4 6.1
2020-Jan-19 21:54 334 2 gusting 9 4.4 6.1
2020-Jan-19 21:48 339 6 gusting 9 4.4 6.1
2020-Jan-19 21:42 338 3 gusting 10 4.4 6.1
2020-Jan-19 21:36 340 3 gusting 8 4.4 6.1
2020-Jan-19 21:30 333 5 gusting 8 5.0 6.1
2020-Jan-19 21:24 313 4 gusting 7 5.0 6.1
2020-Jan-19 21:18 314 3 gusting 7 5.0 6.1
2020-Jan-19 21:12 329 2 gusting 5 5.0 6.1
2020-Jan-19 21:06 348 0 gusting 3 5.0 6.1
2020-Jan-19 21:00 338 2 gusting 7 5.0 6.1
2020-Jan-19 20:54 330 3 gusting 6 5.0 6.1
2020-Jan-19 20:48 350 2 gusting 6 5.0 5.6
2020-Jan-19 20:42 332 4 gusting 6 5.0 6.1
2020-Jan-19 20:36 337 1 gusting 3 5.0 6.1
2020-Jan-19 20:30 338 2 gusting 6 5.6 6.1
2020-Jan-19 20:24 340 4 gusting 8 5.6 6.1
2020-Jan-19 20:18 326 3 gusting 11 5.6 5.6
2020-Jan-19 20:06 334 4 gusting 9 5.6 5.6
2020-Jan-19 20:00 340 4 gusting 8 5.6 6.1
2020-Jan-19 19:54 342 6 gusting 13 5.6 6.1
2020-Jan-19 19:48 344 6 gusting 10 5.6 6.1
2020-Jan-19 19:42 323 6 gusting 9 6.1 6.1
2020-Jan-19 19:36 340 4 gusting 11 5.6 6.1
2020-Jan-19 19:30 322 6 gusting 13 5.6 6.1
2020-Jan-19 19:24 319 3 gusting 6 5.6 6.1
2020-Jan-19 19:18 331 1 gusting 4 5.6 6.1
2020-Jan-19 19:12 335 3 gusting 7 5.6 6.1
2020-Jan-19 19:06 343 4 gusting 8 5.6 5.6
2020-Jan-19 19:00 320 5 gusting 10 6.1 5.6
2020-Jan-19 18:54 336 3 gusting 7 5.6 6.1
2020-Jan-19 18:48 339 2 gusting 9 5.0 6.1
2020-Jan-19 18:42 348 6 gusting 10 5.0 6.1
2020-Jan-19 18:36 331 3 gusting 7 5.6 6.1
2020-Jan-19 18:30 335 3 gusting 7 5.0 6.1
2020-Jan-19 18:24 322 5 gusting 8 5.6 6.1
2020-Jan-19 18:18 326 2 gusting 8 5.6 6.1
2020-Jan-19 18:12 337 4 gusting 10 5.6 6.1
2020-Jan-19 18:06 342 5 gusting 7 5.6 6.1
2020-Jan-19 18:00 324 3 gusting 7 5.6 5.6
2020-Jan-19 17:54 347 6 gusting 9 5.6 5.6
2020-Jan-19 17:48 342 7 gusting 10 5.6 5.0
2020-Jan-19 17:42 348 7 gusting 11 5.6 4.4
2020-Jan-19 17:36 339 3 gusting 9 6.1 3.9
2020-Jan-19 17:30 341 5 gusting 9 6.1 3.9
2020-Jan-19 17:24 343 6 gusting 9 6.1 4.4
2020-Jan-19 17:18 340 6 gusting 8 6.1 3.9
2020-Jan-19 17:12 340 6 gusting 10 6.7 3.9
2020-Jan-19 17:06 320 5 gusting 10 6.7 3.9
2020-Jan-19 17:00 341 7 gusting 11 6.7 4.4
2020-Jan-19 16:54 336 6 gusting 10 7.2 5.0
2020-Jan-19 16:48 346 5 gusting 13 7.2 4.4
2020-Jan-19 16:30 344 3 gusting 13 7.8 4.4
2020-Jan-19 16:18 344 5 gusting 9 7.2 3.9
2020-Jan-19 16:12 348 3 gusting 6 7.8 3.9
2020-Jan-19 16:06 344 1 gusting 6 7.8 3.9
2020-Jan-19 15:54 289 6 gusting 11 6.7 3.9
2020-Jan-19 15:48 306 4 gusting 9 6.7 3.9
2020-Jan-19 15:42 296 6 gusting 11 6.7 4.4
2020-Jan-19 15:36 290 6 gusting 9 6.7 3.9
2020-Jan-19 15:30 283 5 gusting 9 6.7 3.9
2020-Jan-19 15:24 311 5 gusting 9 6.1 3.9
2020-Jan-19 15:18 309 4 gusting 9 6.1 3.9
2020-Jan-19 15:12 295 2 gusting 9 5.6 4.4
2020-Jan-19 15:06 309 6 gusting 10 5.0 4.4
2020-Jan-19 15:00 311 5 gusting 7 5.0 4.4
2020-Jan-19 14:48 292 6 gusting 10 4.4 5.0
2020-Jan-19 14:42 306 4 gusting 7 4.4 4.4
2020-Jan-19 14:36 292 6 gusting 9 3.9 5.0
2020-Jan-19 14:30 309 3 gusting 6 3.3 5.0
2020-Jan-19 14:18 292 4 gusting 7 3.3 6.1
2020-Jan-19 14:12 284 4 gusting 7 2.8 6.1
2020-Jan-19 14:06 268 4 gusting 6 2.8 6.1
2020-Jan-19 14:00 251 4 gusting 6 2.8 5.6
2020-Jan-19 13:54 240 3 gusting 5 2.2 6.1
2020-Jan-19 13:48 240 1 gusting 3 2.2 5.6
2020-Jan-19 13:42 230 1 gusting 3 2.2 5.6
2020-Jan-19 13:36 223 2 gusting 3 1.7 6.1
2020-Jan-19 13:30 227 1 gusting 2 1.7 5.6
2020-Jan-19 13:24 228 0 gusting 1 1.7 6.1
2020-Jan-19 13:18 284 0 gusting 2 1.7 6.1
2020-Jan-19 13:12 310 1 gusting 3 1.7 5.6
2020-Jan-19 13:06 304 1 gusting 2 1.7 5.6
2020-Jan-19 13:00 294 0 gusting 2 1.7 5.6
2020-Jan-19 12:54 264 1 gusting 4 1.7 6.1
2020-Jan-19 12:48 266 3 gusting 4 1.7 6.1
2020-Jan-19 12:42 288 3 gusting 5 2.2 6.1
2020-Jan-19 12:36 280 2 gusting 5 2.2 5.6
2020-Jan-19 12:30 268 2 gusting 4 2.2 5.6
2020-Jan-19 12:24 266 3 gusting 4 2.2 5.0
2020-Jan-19 12:18 274 1 gusting 3 2.2 5.6
2020-Jan-19 12:12 285 1 gusting 3 2.2 5.6
2020-Jan-19 12:06 283 3 gusting 5 2.2 5.6
2020-Jan-19 12:00 291 3 gusting 5 2.2 5.0
2020-Jan-19 11:54 254 3 gusting 6 2.2 5.0
2020-Jan-19 11:48 259 2 gusting 3 2.2 5.0
2020-Jan-19 11:42 272 0 gusting 5 2.2 5.0
2020-Jan-19 11:36 265 3 gusting 6 2.2 5.6
2020-Jan-19 11:30 242 3 gusting 5 2.2 5.6
2020-Jan-19 11:24 255 3 gusting 6 2.2 5.6
2020-Jan-19 11:18 256 3 gusting 7 2.8 5.6
2020-Jan-19 11:12 244 2 gusting 7 2.8 6.1
2020-Jan-19 11:06 242 5 gusting 7 2.8 6.1
2020-Jan-19 11:00 255 4 gusting 7 2.8 6.1
2020-Jan-19 10:54 264 3 gusting 6 2.8 6.1
2020-Jan-19 10:48 264 3 gusting 5 2.8 6.1
2020-Jan-19 10:42 254 4 gusting 7 2.8 6.1
2020-Jan-19 10:36 249 3 gusting 8 2.8 6.1
2020-Jan-19 10:30 240 4 gusting 7 2.8 6.1
2020-Jan-19 10:24 234 4 gusting 7 2.8 6.1
2020-Jan-19 10:18 245 5 gusting 10 2.8 6.1
2020-Jan-19 10:12 242 4 gusting 9 2.8 6.1
2020-Jan-19 10:06 252 4 gusting 6 2.8 6.1
2020-Jan-19 10:00 248 4 gusting 7 2.8 6.1
2020-Jan-19 09:54 260 4 gusting 7 2.8 6.1
2020-Jan-19 09:48 249 6 gusting 8 2.8 6.1
2020-Jan-19 09:42 257 4 gusting 8 2.8 6.1
2020-Jan-19 09:36 259 6 gusting 10 2.8 6.1
2020-Jan-19 09:30 257 6 gusting 9 2.8 6.1
2020-Jan-19 09:24 263 3 gusting 9 2.8 6.1
2020-Jan-19 09:18 259 6 gusting 10 2.8 6.1
2020-Jan-19 09:12 261 3 gusting 7 2.8 6.1
2020-Jan-19 09:06 260 3 gusting 8 2.8 6.1
2020-Jan-19 09:00 255 3 gusting 8 2.8 6.1
2020-Jan-19 08:54 251 2 gusting 10 2.8 6.1
2020-Jan-19 08:48 255 5 gusting 9 2.8 6.1
2020-Jan-19 08:42 254 5 gusting 8 2.8 6.1
2020-Jan-19 08:36 258 4 gusting 7 2.8 6.1
2020-Jan-19 08:24 244 3 gusting 9 2.8 6.1
2020-Jan-19 08:18 262 6 gusting 13 2.8 6.1
2020-Jan-19 08:12 260 7 gusting 11 2.8 6.1
2020-Jan-19 08:06 260 6 gusting 9 2.8 6.1
2020-Jan-19 08:00 264 4 gusting 7 2.8 6.1
2020-Jan-19 07:54 266 4 gusting 7 2.8 6.1
2020-Jan-19 07:48 246 6 gusting 9 3.3 6.1
2020-Jan-19 07:42 244 6 gusting 7 3.3 6.1
2020-Jan-19 07:36 246 2 gusting 8 3.3 6.1
2020-Jan-19 07:30 253 6 gusting 11 3.3 6.1
2020-Jan-19 07:24 252 7 gusting 13 3.3 6.1
2020-Jan-19 07:18 257 7 gusting 13 3.3 6.1
2020-Jan-19 07:12 246 9 gusting 14 3.3 5.0
2020-Jan-19 07:06 252 6 gusting 9 3.3 5.6
2020-Jan-19 07:00 242 4 gusting 11 3.3 5.6
2020-Jan-19 06:54 239 5 gusting 9 3.3 5.0
2020-Jan-19 06:48 244 6 gusting 11 3.3 5.0
2020-Jan-19 06:42 237 6 gusting 9 3.3 4.4
2020-Jan-19 06:36 246 4 gusting 10 3.3 4.4
2020-Jan-19 06:30 248 6 gusting 12 3.3 4.4
2020-Jan-19 06:24 244 4 gusting 9 3.3 4.4
2020-Jan-19 06:18 234 4 gusting 8 3.3 4.4
2020-Jan-19 06:12 245 2 gusting 9 3.3 4.4
2020-Jan-19 06:06 244 3 gusting 7 3.3 4.4
2020-Jan-19 06:00 238 3 gusting 6 3.3 4.4